Weather History for Guymon, OK

Change the Weather History Date:

Monday, June 11, 2012

  Actual Average Record
Temperature  
Mean Temperature 73 °F 73 °F  
Max Temperature 87 °F 86 °F 107 °F (2008)
Min Temperature 58 °F 60 °F 55 °F (1999)
Degree Days  
Heating Degree Days 0 0  
Month to date heating degree days 0 6  
Since 1 June heating degree days 0 6  
Since 1 July heating degree days 3791 4455  
Cooling Degree Days 8 8  
Month to date cooling degree days 120 76  
Year to date cooling degree days 385 184  
Since 1 June cooling degree days 120 76  
Growing Degree Days 22 (Base 50)    
Moisture  
Dew Point 41 °F    
Average Humidity 44    
Maximum Humidity 72    
Minimum Humidity 15    
Precipitation  
Precipitation 0.00 in 0.12 in 0.32 in (1999)
Month to date precipitation 1.26 1.33  
Year to date precipitation 4.92 7.58  
Snow  
Snow 0.00 in - - ()
Month to date snowfall 0.0  
Since 1 June snowfall 0.0  
Since 1 July snowfall 9.1  
Snow Depth 0.00 in    
Sea Level Pressure  
Sea Level Pressure 29.92 in    
Wind  
Wind Speed 11 mph (NE)    
Max Wind Speed 25 mph    
Max Gust Speed 32 mph    
Visibility 10 miles    
Events      
T = Trace of Precipitation, MM = Missing Value Source: NWS Daily Summary

Daily Weather History Graph

Daily Weather History Graph

Search for Another Location

Airport:

Trip Planner

Search our weather history database for the weather conditions in past years. The results will help you decide how hot, cold, wet, or windy it might be!

Date:

Astronomy

Jun. 11, 2012 Rise Set
Actual Time 6:26 AM CDT 9:05 PM CDT
Civil Twilight 5:56 AM CDT 9:35 PM CDT
Nautical Twilight 5:18 AM CDT 10:13 PM CDT
Astronomical Twilight 4:35 AM CDT 10:56 PM CDT
Moon 1:36 AM CDT (6/11) 2:06 PM CDT (6/11)
Length of Visible Light 15h 39m
Length of Day
14h 38m
Waning Gibbous, 47% of the Moon is Illuminated
Jun 11
Waning Gibbous
Jun 19
New
Jun 26
First Quarter
Jul 3
Full
Jul 10
Last Quarter

Hourly Weather History & Observations

Time (CDT) Temp. Dew Point Humidity Pressure Visibility Wind Dir Wind Speed Gust Speed Precip Events Conditions
12:53 AM 69.1 °F 54.0 °F 58% 29.75 in 10.0 mi NE 10.4 mph - N/A   Clear
1:53 AM 66.9 °F 53.1 °F 61% 29.77 in 10.0 mi NNE 10.4 mph - N/A   Clear
2:53 AM 64.9 °F 53.1 °F 65% 29.78 in 10.0 mi North 11.5 mph - N/A   Clear
3:53 AM 63.0 °F 52.0 °F 67% 29.78 in 10.0 mi NNE 5.8 mph - N/A   Clear
4:53 AM 61.0 °F 51.1 °F 70% 29.79 in 10.0 mi NNW 6.9 mph - N/A   Clear
5:53 AM 59.0 °F 50.0 °F 72% 29.83 in 10.0 mi NNW 10.4 mph - N/A   Clear
6:53 AM 57.9 °F 48.9 °F 72% 29.88 in 10.0 mi NNW 8.1 mph - N/A   Clear
8:53 AM 68.0 °F 48.9 °F 50% 29.94 in 10.0 mi North 16.1 mph - N/A   Clear
9:53 AM 73.9 °F 48.0 °F 40% 29.96 in 10.0 mi NNE 19.6 mph 25.3 mph N/A   Clear
10:53 AM 78.1 °F 39.0 °F 25% 29.97 in 10.0 mi NNE 23.0 mph 28.8 mph N/A   Clear
11:53 AM 80.1 °F 32.0 °F 17% 29.98 in 10.0 mi NNE 20.7 mph 26.5 mph N/A   Clear
12:53 PM 82.0 °F 33.1 °F 17% 29.98 in 10.0 mi NE 18.4 mph 26.5 mph N/A   Clear
1:53 PM 82.9 °F 33.1 °F 17% 29.98 in 10.0 mi NNE 10.4 mph 23.0 mph N/A   Clear
2:53 PM 86.0 °F 34.0 °F 16% 29.96 in 10.0 mi ENE 10.4 mph - N/A   Clear
3:53 PM 87.1 °F 34.0 °F 15% 29.96 in 10.0 mi NNE 12.7 mph 19.6 mph N/A   Clear
4:53 PM 86.0 °F 33.1 °F 15% 29.96 in 10.0 mi NNE 9.2 mph - N/A   Clear
5:53 PM 86.0 °F 33.1 °F 15% 29.96 in 10.0 mi East 6.9 mph - N/A   Clear
6:53 PM 86.0 °F 34.0 °F 16% 29.96 in 10.0 mi ENE 6.9 mph - N/A   Clear
7:53 PM 84.0 °F 33.1 °F 16% 29.95 in 10.0 mi East 8.1 mph - N/A   Clear
8:53 PM 80.1 °F 35.1 °F 20% 29.96 in 10.0 mi ENE 9.2 mph - N/A   Clear
9:53 PM 75.9 °F 35.1 °F 23% 29.98 in 10.0 mi East 5.8 mph - N/A   Clear
10:53 PM 72.0 °F 36.0 °F 27% 30.01 in 10.0 mi ESE 5.8 mph - N/A   Clear
11:53 PM 68.0 °F 37.0 °F 32% 30.02 in 10.0 mi SE 4.6 mph - N/A   Clear